Hailey, ID

2:13 AM MDT on July 24, 2017 (GMT -0600)
Friedman Memorial

Weather History for KSUN - October, 2012

Change the Weather History Date:

Wednesday, October 31, 2012

  Actual Average Record
Temperature  
Mean Temperature 52 °F -  
Max Temperature 66 °F 48 °F 66 °F (2012)
Min Temperature 39 °F 25 °F 6 °F (2002)
Degree Days  
Heating Degree Days 12    
Growing Degree Days 2 (Base 50)    
Moisture  
Dew Point 33 °F    
Average Humidity 65    
Maximum Humidity 81    
Minimum Humidity 28    
Precipitation  
Precipitation 0.00 in - - ()
Sea Level Pressure  
Sea Level Pressure 30.11 in    
Wind  
Wind Speed 10 mph (NW)    
Max Wind Speed 14 mph    
Max Gust Speed 20 mph    
Visibility 10 miles    
Events      
Averages and records for this station are not official NWS values.
T = Trace of Precipitation, MM = Missing Value Source: NWS Daily Summary

Daily Weather History Graph

Daily Weather History Graph

Search for Another Location

Airport or City:

Trip Planner

Search our weather history database for the weather conditions in past years. The results will help you decide how hot, cold, wet, or windy it might be!

Date:

Astronomy

Oct. 31, 2012 Rise Set
Actual Time 8:12 AM MDT 6:28 PM MDT
Civil Twilight 7:42 AM MDT 6:58 PM MDT
Nautical Twilight 7:08 AM MDT 7:32 PM MDT
Astronomical Twilight 6:35 AM MDT 8:05 PM MDT
Moon 7:39 PM MDT (10/31) 10:00 AM MDT (10/31)
Length of Visible Light 11h 16m
Length of Day
10h 16m
Full, 97% of the Moon is Illuminated
Oct 31
Full
Nov 6
Last Quarter
Nov 13
New
Nov 20
First Quarter
Nov 28
Full

Hourly Weather History & Observations

Time (MDT) Temp. Windchill Dew Point Humidity Pressure Visibility Wind Dir Wind Speed Gust Speed Precip Events Conditions
12:15 AM 42.8 °F 37.0 °F 33.8 °F 70% 30.17 in 10.0 mi NW 10.4 mph - N/A   Clear
12:35 AM 42.8 °F 37.5 °F 33.8 °F 70% 30.17 in 10.0 mi NW 9.2 mph - N/A   Clear
12:55 AM 42.8 °F 37.0 °F 33.8 °F 70% 30.17 in 10.0 mi NW 10.4 mph - N/A   Clear
1:15 AM 41.0 °F 34.3 °F 33.8 °F 76% 30.17 in 10.0 mi NNW 11.5 mph - N/A   Clear
1:35 AM 41.0 °F 34.7 °F 33.8 °F 76% 30.17 in 10.0 mi NW 10.4 mph - N/A   Clear
2:15 AM 41.0 °F 34.3 °F 33.8 °F 76% 30.16 in 10.0 mi NW 11.5 mph - N/A   Clear
2:35 AM 41.0 °F 34.7 °F 33.8 °F 76% 30.17 in 10.0 mi NW 10.4 mph - N/A   Clear
2:55 AM 41.0 °F 34.3 °F 33.8 °F 76% 30.16 in 10.0 mi NW 11.5 mph 17.3 mph N/A   Clear
3:15 AM 41.0 °F 35.2 °F 33.8 °F 76% 30.16 in 10.0 mi NW 9.2 mph - N/A   Clear
3:35 AM 41.0 °F 35.8 °F 33.8 °F 76% 30.16 in 10.0 mi NW 8.1 mph - N/A   Clear
3:55 AM 39.2 °F 32.5 °F 33.8 °F 81% 30.16 in 10.0 mi NW 10.4 mph - N/A   Clear
4:15 AM 41.0 °F 33.9 °F 33.8 °F 76% 30.15 in 10.0 mi NW 12.7 mph - N/A   Clear
4:35 AM 39.2 °F 31.6 °F 33.8 °F 81% 30.14 in 10.0 mi NW 12.7 mph 18.4 mph N/A   Clear
4:55 AM 39.2 °F 32.5 °F 32.0 °F 75% 30.14 in 10.0 mi NW 10.4 mph - N/A   Clear
5:15 AM 39.2 °F 33.0 °F 32.0 °F 75% 30.14 in 10.0 mi NW 9.2 mph - N/A   Clear
5:35 AM 39.2 °F 32.5 °F 32.0 °F 75% 30.14 in 10.0 mi NW 10.4 mph - N/A   Clear
5:55 AM 39.2 °F 32.5 °F 32.0 °F 75% 30.14 in 10.0 mi NW 10.4 mph 16.1 mph N/A   Clear
6:15 AM 39.2 °F 33.6 °F 32.0 °F 75% 30.15 in 10.0 mi NW 8.1 mph - N/A   Clear
6:35 AM 39.2 °F 32.5 °F 32.0 °F 75% 30.15 in 10.0 mi WNW 10.4 mph 17.3 mph N/A   Clear
6:47 AM 39.2 °F 32.0 °F 33.8 °F 81% 30.15 in 10.0 mi WNW 11.5 mph - N/A   Scattered Clouds
6:55 AM 39.2 °F 32.5 °F 32.0 °F 75% 30.15 in 10.0 mi NW 10.4 mph - N/A   Clear
7:49 AM 39.2 °F 32.0 °F 33.8 °F 81% 30.15 in 10.0 mi WNW 11.5 mph - N/A   Partly Cloudy
8:47 AM 39.2 °F 31.6 °F 32.0 °F 75% 30.15 in 10.0 mi WNW 12.7 mph - N/A   Scattered Clouds
9:53 AM 42.8 °F 35.8 °F 32.0 °F 66% 30.15 in 10.0 mi WNW 13.8 mph 19.6 mph N/A   Scattered Clouds
10:47 AM 46.4 °F 41.1 °F 33.8 °F 62% 30.15 in 10.0 mi WNW 11.5 mph - N/A   Scattered Clouds
11:48 AM 53.6 °F - 33.8 °F 47% 30.13 in 10.0 mi WNW 8.1 mph - N/A   Scattered Clouds
12:51 PM 59.0 °F - 32.0 °F 36% 30.10 in 10.0 mi Calm Calm - N/A   Mostly Cloudy
1:47 PM 64.4 °F - 32.0 °F 30% 30.07 in 10.0 mi South 4.6 mph - N/A   Mostly Cloudy
2:47 PM 66.2 °F - 32.0 °F 28% 30.04 in 10.0 mi SSE 5.8 mph - N/A   Mostly Cloudy
3:47 PM 62.6 °F - 32.0 °F 32% 30.03 in 10.0 mi South 8.1 mph - N/A   Mostly Cloudy
4:52 PM 62.6 °F - 32.0 °F 32% 30.02 in 10.0 mi SSE 4.6 mph - N/A   Mostly Cloudy
6:47 PM 53.6 °F - 33.8 °F 47% 30.00 in 10.0 mi Calm Calm - N/A   Mostly Cloudy
7:55 PM 51.8 °F - 32.0 °F 47% 30.00 in 10.0 mi WNW 8.1 mph - N/A   Mostly Cloudy
9:47 PM 46.4 °F 43.5 °F 33.8 °F 62% 29.99 in 10.0 mi WNW 5.8 mph - N/A   Mostly Cloudy
10:47 PM 46.4 °F 43.5 °F 32.0 °F 57% 29.99 in 10.0 mi WNW 5.8 mph - N/A   Mostly Cloudy
11:15 PM 44.6 °F 40.7 °F 32.0 °F 61% 29.99 in 10.0 mi NW 6.9 mph - N/A   Clear
11:35 PM 44.6 °F 40.7 °F 32.0 °F 61% 29.98 in 10.0 mi NW 6.9 mph - N/A   Clear
11:55 PM 44.6 °F 40.7 °F 32.0 °F 61% 29.98 in 10.0 mi NNW 6.9 mph - N/A   Clear